Precipitable_Water
0.50 0.50 0.48 0.46 0.44 0.45 0.41 0.42 0.36 0.37 0.37 0.42 0.48 0.48 0.49 0.53 0.57 0.63 0.63 0.65 0.67 0.70 0.72 0.73 0.72 0.75 0.74 0.72 0.61 0.53 0.45 0.42 0.43 0.41 0.34 0.27 0.23 0.20 0.20 0.19 0.20 0.20 0.20 0.20
0.42 0.47 0.45 0.41 0.44 0.46 0.46 0.46 0.44 0.41 0.37 0.50 0.51 0.50 0.46 0.45 0.44 0.51 0.58 0.64 0.68 0.70 0.71 0.70 0.70 0.72 0.78 0.66 0.55 0.49 0.44 0.43 0.44 0.41 0.34 0.26 0.23 0.20 0.20 0.20 0.20 0.21 0.21 0.21
0.38 0.45 0.41 0.30 0.37 0.41 0.44 0.46 0.44 0.35 0.40 0.42 0.36 0.37 0.39 0.42 0.47 0.46 0.51 0.61 0.64 0.68 0.70 0.69 0.72 0.70 0.65 0.59 0.52 0.46 0.44 0.44 0.44 0.41 0.32 0.26 0.22 0.19 0.19 0.20 0.21 0.21 0.22 0.21
0.37 0.35 0.21 0.35 0.44 0.43 0.41 0.42 0.42 0.38 0.34 0.33 0.34 0.37 0.38 0.42 0.44 0.48 0.52 0.55 0.60 0.65 0.67 0.71 0.70 0.67 0.63 0.54 0.47 0.45 0.44 0.44 0.44 0.40 0.31 0.25 0.22 0.20 0.20 0.20 0.21 0.22 0.22 0.22
0.29 0.27 0.32 0.33 0.38 0.39 0.37 0.35 0.37 0.34 0.36 0.38 0.38 0.36 0.36 0.46 0.48 0.51 0.56 0.59 0.63 0.68 0.71 0.71 0.68 0.63 0.54 0.49 0.46 0.45 0.44 0.45 0.43 0.39 0.29 0.24 0.21 0.20 0.20 0.20 0.21 0.22 0.21 0.21
0.35 0.26 0.19 0.30 0.35 0.40 0.41 0.26 0.36 0.36 0.35 0.35 0.38 0.32 0.40 0.48 0.52 0.55 0.60 0.64 0.65 0.69 0.70 0.64 0.59 0.56 0.50 0.45 0.45 0.45 0.44 0.44 0.43 0.38 0.29 0.25 0.23 0.21 0.20 0.20 0.20 0.21 0.20 0.21
0.35 0.29 0.31 0.41 0.40 0.43 0.23 0.27 0.35 0.37 0.37 0.36 0.32 0.37 0.45 0.50 0.53 0.59 0.60 0.59 0.60 0.60 0.56 0.57 0.57 0.54 0.48 0.47 0.46 0.46 0.44 0.43 0.42 0.36 0.30 0.27 0.24 0.22 0.20 0.20 0.20 0.21 0.21 0.21
0.37 0.31 0.23 0.46 0.42 0.30 0.38 0.40 0.37 0.39 0.39 0.36 0.39 0.40 0.42 0.47 0.51 0.51 0.50 0.51 0.54 0.54 0.55 0.58 0.57 0.54 0.50 0.49 0.49 0.46 0.45 0.43 0.41 0.35 0.32 0.26 0.23 0.21 0.20 0.19 0.20 0.20 0.20 0.21
0.35 0.33 0.45 0.45 0.41 0.45 0.45 0.40 0.42 0.42 0.43 0.44 0.44 0.43 0.43 0.45 0.51 0.51 0.51 0.52 0.54 0.55 0.56 0.58 0.59 0.56 0.52 0.50 0.49 0.47 0.45 0.43 0.40 0.36 0.33 0.27 0.23 0.21 0.19 0.19 0.20 0.21 0.20 0.20
0.38 0.40 0.41 0.44 0.49 0.51 0.50 0.48 0.48 0.48 0.49 0.50 0.47 0.50 0.49 0.49 0.52 0.53 0.54 0.55 0.56 0.57 0.58 0.58 0.59 0.56 0.54 0.51 0.49 0.47 0.44 0.43 0.39 0.38 0.34 0.29 0.25 0.22 0.20 0.19 0.21 0.21 0.20 0.20
0.38 0.42 0.44 0.45 0.46 0.46 0.49 0.51 0.50 0.52 0.52 0.51 0.50 0.51 0.53 0.51 0.54 0.55 0.57 0.58 0.60 0.62 0.62 0.59 0.60 0.57 0.55 0.51 0.50 0.47 0.45 0.42 0.40 0.39 0.36 0.31 0.25 0.21 0.19 0.20 0.21 0.20 0.20 0.20
0.31 0.42 0.42 0.43 0.48 0.51 0.47 0.45 0.44 0.46 0.47 0.50 0.52 0.51 0.54 0.54 0.58 0.60 0.60 0.60 0.61 0.65 0.63 0.61 0.60 0.57 0.55 0.52 0.54 0.49 0.45 0.44 0.42 0.40 0.39 0.32 0.25 0.20 0.20 0.19 0.20 0.19 0.19 0.19
0.41 0.50 0.50 0.49 0.48 0.48 0.44 0.44 0.43 0.45 0.48 0.50 0.56 0.58 0.58 0.57 0.62 0.64 0.64 0.63 0.62 0.66 0.64 0.61 0.57 0.56 0.55 0.55 0.55 0.51 0.48 0.45 0.44 0.44 0.40 0.32 0.24 0.20 0.19 0.23 0.21 0.19 0.18 0.19
0.48 0.48 0.42 0.44 0.40 0.47 0.48 0.47 0.50 0.51 0.52 0.54 0.57 0.59 0.59 0.59 0.61 0.61 0.62 0.66 0.67 0.63 0.56 0.52 0.52 0.51 0.55 0.55 0.58 0.54 0.50 0.45 0.45 0.45 0.39 0.31 0.23 0.19 0.20 0.20 0.20 0.21 0.22 0.20
0.43 0.44 0.42 0.45 0.47 0.46 0.47 0.48 0.47 0.47 0.51 0.53 0.55 0.53 0.53 0.52 0.52 0.54 0.57 0.57 0.54 0.48 0.46 0.45 0.46 0.51 0.57 0.54 0.63 0.54 0.47 0.47 0.46 0.45 0.39 0.30 0.22 0.20 0.20 0.20 0.20 0.20 0.22 0.22
0.35 0.35 0.37 0.35 0.35 0.36 0.41 0.46 0.46 0.48 0.51 0.50 0.51 0.51 0.49 0.51 0.49 0.48 0.49 0.49 0.46 0.43 0.44 0.45 0.47 0.52 0.55 0.59 0.64 0.53 0.49 0.45 0.46 0.42 0.36 0.26 0.20 0.20 0.19 0.19 0.20 0.21 0.21 0.21
0.26 0.24 0.28 0.28 0.31 0.34 0.39 0.43 0.44 0.43 0.44 0.46 0.46 0.49 0.48 0.46 0.44 0.44 0.46 0.48 0.46 0.45 0.49 0.49 0.52 0.55 0.61 0.66 0.52 0.48 0.49 0.44 0.46 0.40 0.32 0.23 0.22 0.19 0.19 0.19 0.21 0.22 0.21 0.22
0.28 0.29 0.30 0.30 0.31 0.32 0.33 0.36 0.38 0.40 0.40 0.43 0.42 0.41 0.41 0.40 0.39 0.41 0.44 0.46 0.47 0.47 0.48 0.49 0.53 0.57 0.57 0.49 0.50 0.48 0.44 0.49 0.42 0.37 0.27 0.22 0.20 0.18 0.18 0.21 0.22 0.21 0.21 0.22
0.27 0.27 0.28 0.29 0.30 0.31 0.33 0.34 0.37 0.39 0.41 0.42 0.41 0.38 0.40 0.43 0.44 0.47 0.48 0.45 0.43 0.42 0.44 0.48 0.50 0.51 0.49 0.48 0.46 0.44 0.50 0.46 0.40 0.31 0.24 0.21 0.18 0.17 0.20 0.22 0.22 0.22 0.22 0.22
0.26 0.28 0.29 0.28 0.30 0.32 0.33 0.37 0.40 0.41 0.43 0.44 0.44 0.43 0.43 0.45 0.46 0.45 0.44 0.40 0.42 0.45 0.49 0.50 0.50 0.49 0.49 0.48 0.43 0.51 0.48 0.42 0.34 0.26 0.22 0.18 0.17 0.19 0.22 0.22 0.21 0.22 0.23 0.24
0.24 0.25 0.26 0.27 0.28 0.31 0.34 0.35 0.37 0.38 0.42 0.44 0.44 0.44 0.45 0.46 0.47 0.44 0.40 0.38 0.42 0.46 0.48 0.50 0.48 0.47 0.46 0.44 0.50 0.49 0.44 0.37 0.29 0.22 0.18 0.16 0.18 0.20 0.22 0.23 0.23 0.24 0.24 0.25
0.27 0.27 0.28 0.30 0.29 0.31 0.37 0.40 0.42 0.42 0.43 0.44 0.45 0.44 0.42 0.41 0.41 0.42 0.43 0.42 0.44 0.45 0.47 0.46 0.45 0.44 0.44 0.48 0.50 0.44 0.38 0.30 0.22 0.18 0.16 0.18 0.20 0.22 0.24 0.24 0.24 0.24 0.25 0.25
0.28 0.28 0.29 0.29 0.30 0.34 0.40 0.44 0.45 0.44 0.42 0.40 0.37 0.39 0.40 0.41 0.41 0.38 0.36 0.42 0.45 0.46 0.48 0.47 0.46 0.44 0.50 0.51 0.42 0.38 0.31 0.22 0.17 0.16 0.18 0.20 0.22 0.24 0.24 0.24 0.24 0.25 0.25 0.24
0.25 0.28 0.30 0.32 0.36 0.37 0.39 0.45 0.46 0.44 0.41 0.40 0.41 0.42 0.42 0.42 0.44 0.45 0.44 0.45 0.47 0.48 0.48 0.48 0.47 0.53 0.45 0.41 0.39 0.30 0.22 0.17 0.16 0.18 0.20 0.22 0.24 0.25 0.24 0.24 0.25 0.26 0.24 0.23
0.29 0.31 0.34 0.36 0.36 0.39 0.44 0.46 0.45 0.42 0.41 0.40 0.40 0.41 0.42 0.43 0.44 0.46 0.48 0.48 0.48 0.47 0.46 0.49 0.49 0.40 0.42 0.37 0.28 0.20 0.17 0.17 0.19 0.21 0.23 0.24 0.24 0.25 0.25 0.26 0.26 0.25 0.24 0.23
0.31 0.32 0.37 0.40 0.40 0.44 0.46 0.46 0.43 0.42 0.40 0.38 0.39 0.41 0.42 0.43 0.43 0.44 0.45 0.47 0.45 0.46 0.49 0.45 0.41 0.41 0.35 0.26 0.20 0.17 0.17 0.19 0.21 0.22 0.24 0.25 0.25 0.25 0.25 0.26 0.26 0.25 0.24 0.24
0.33 0.36 0.38 0.41 0.44 0.46 0.47 0.45 0.40 0.39 0.40 0.41 0.40 0.41 0.42 0.42 0.42 0.41 0.41 0.44 0.46 0.47 0.45 0.43 0.41 0.34 0.25 0.19 0.16 0.18 0.20 0.22 0.24 0.25 0.26 0.25 0.25 0.26 0.26 0.27 0.27 0.26 0.25 0.24
Wind_Speed
10 10 12 12 13 15 16 16 15 17 19 19 20 19 20 20 18 18 19 20 20 19 18 18 18 19 19 19 20 21 22 23 24 25 26 26 25 26 27 28 28 29 30 30
12 12 13 16 16 18 19 19 20 22 23 21 18 17 18 17 16 18 19 20 21 21 20 20 20 19 20 21 22 23 24 25 25 26 26 26 26 27 28 29 29 30 30 31
15 13 15 19 22 23 21 19 19 20 19 17 18 18 18 18 17 18 19 21 22 22 22 21 20 21 21 22 23 24 25 26 26 27 27 27 27 27 28 29 30 31 31 31
14 12 14 12 11 12 15 16 16 18 19 19 19 19 19 19 19 18 19 19 20 21 21 21 21 22 23 24 24 25 26 26 27 28 28 28 28 28 29 30 31 31 31 32
14 15 15 16 14 12 13 14 14 15 14 15 15 16 17 16 18 18 18 17 17 19 20 20 21 23 24 25 25 26 27 28 28 28 28 28 28 29 30 30 31 31 32 32
14 15 14 11 11 10 12 17 11 13 13 14 14 14 14 16 16 16 16 16 16 17 18 21 22 24 25 25 26 27 27 28 29 29 29 29 29 30 30 31 31 32 32 33
18 17 18 17 15 14 14 14 13 14 14 15 17 18 19 19 17 16 16 16 17 18 20 22 23 24 25 26 27 28 28 28 29 29 29 29 29 30 30 31 32 32 32 33
20 19 21 18 16 18 15 15 16 17 19 21 21 21 21 21 20 19 19 19 20 20 22 23 24 25 26 27 28 28 28 29 29 29 29 29 30 30 31 31 32 32 32 33
22 20 18 19 19 20 19 20 21 23 24 23 23 23 23 23 23 22 22 22 22 23 24 25 26 26 27 28 28 28 29 29 29 29 29 29 30 31 31 31 31 31 32 32
22 24 24 23 23 24 26 27 29 30 28 27 27 27 26 25 25 25 25 25 25 26 26 27 27 27 28 28 28 29 29 29 28 29 29 29 30 31 31 31 31 31 32 32
28 27 25 27 28 30 31 30 30 29 30 31 30 30 30 29 28 28 28 28 28 28 29 30 29 29 29 29 29 29 29 29 28 28 29 30 31 31 31 30 31 31 32 33
26 27 29 30 28 28 30 31 32 33 33 33 33 33 32 31 31 31 31 30 31 31 32 31 31 31 30 30 30 29 29 28 28 28 29 30 31 31 30 30 31 32 33 33
31 30 30 32 32 33 35 34 34 34 34 33 32 32 33 33 32 32 32 33 34 34 34 33 33 33 33 32 31 30 29 28 28 29 30 30 30 30 30 30 31 32 32 32
32 32 34 35 36 35 34 35 35 34 34 34 34 34 34 35 34 34 35 35 35 35 35 34 35 35 34 33 32 30 29 28 28 29 29 30 29 29 29 30 31 31 31 32
33 35 38 37 37 37 36 37 37 37 37 37 37 37 37 37 36 36 36 35 35 35 35 36 36 35 34 32 30 29 28 27 29 28 29 28 28 28 29 30 30 31 31 31
33 34 36 39 40 41 40 40 41 40 40 40 40 40 39 39 38 38 37 36 37 38 38 37 36 34 32 30 28 29 28 28 28 27 27 27 27 28 29 29 30 30 31 31
31 32 33 35 37 39 40 40 41 41 41 41 41 41 40 39 40 40 40 40 40 40 37 35 34 32 31 29 28 28 27 27 27 27 27 27 27 28 28 29 30 30 31 31
25 27 28 31 33 36 39 41 43 43 43 44 43 42 41 41 42 41 39 38 36 34 34 32 30 29 29 28 27 26 26 26 26 26 26 26 27 28 28 29 29 30 31 31
24 26 28 30 31 33 34 36 37 39 40 40 39 39 39 38 37 35 33 32 31 31 29 28 28 27 27 26 26 25 25 25 25 25 26 26 27 27 28 29 29 30 30 31
23 25 26 28 31 33 33 33 32 32 31 31 31 31 31 31 30 29 28 28 28 28 27 26 25 25 24 24 24 24 24 23 24 24 25 26 26 27 28 28 29 30 31 32
22 24 27 28 31 32 31 30 28 29 29 27 27 28 28 28 27 27 27 28 27 26 25 25 24 23 22 22 22 21 21 22 23 24 24 25 26 27 28 28 29 30 31 32
26 27 29 31 32 30 27 26 24 23 23 23 24 25 25 25 25 25 25 25 23 22 21 21 20 20 19 19 19 20 20 21 22 23 23 24 25 26 27 28 29 30 31 32
29 31 33 32 31 28 25 23 22 22 22 22 21 21 21 21 21 22 22 21 19 19 17 16 16 17 17 17 18 18 19 20 21 22 23 24 25 26 27 28 29 30 31 32
32 33 32 30 29 25 23 21 21 20 19 18 18 17 17 17 18 18 17 16 15 14 14 14 15 16 16 16 17 18 19 20 20 21 23 24 25 26 27 28 29 31 32 33
31 31 30 28 24 21 20 19 19 18 16 16 15 15 15 15 15 14 13 12 12 13 14 15 15 15 15 16 17 18 18 19 20 21 23 24 25 26 27 28 30 31 32 34
27 26 24 22 21 20 18 17 17 16 15 15 15 15 14 13 13 12 12 12 13 13 14 14 14 15 15 16 17 17 17 19 20 22 22 23 25 26 28 29 31 32 34 35
24 22 20 19 18 18 18 17 16 16 15 15 15 14 13 13 13 12 12 13 14 14 14 14 14 15 16 16 16 16 18 19 20 21 22 24 25 27 29 30 32 33 35 36
Wind_Direction
230 234 241 246 244 242 247 257 258 269 280 278 283 286 285 287 276 264 257 250 252 257 261 265 265 266 271 278 285 293 298 301 304 307 307 307 307 308 310 312 313 314 314 315
241 240 248 253 251 252 254 260 265 273 278 282 284 284 284 282 276 267 261 255 257 258 261 265 264 267 272 277 286 292 296 299 303 305 305 305 305 307 309 310 312 313 313 314
246 251 263 261 252 252 254 259 267 272 280 287 284 283 283 283 280 274 267 261 261 260 263 264 265 267 273 279 286 290 294 298 301 303 303 304 304 306 308 310 311 312 313 314
247 250 256 264 253 254 256 259 264 272 282 287 286 285 282 280 281 278 274 269 264 261 262 263 265 270 276 282 286 289 293 296 299 301 302 302 303 305 307 309 310 312 312 314
242 244 268 256 252 254 255 265 268 275 286 293 292 287 283 283 281 282 278 274 268 266 264 264 267 273 278 282 285 288 291 295 298 299 300 301 302 304 306 308 310 311 312 313
241 251 255 257 241 251 265 272 258 271 283 291 294 294 293 296 286 282 279 274 272 268 267 268 272 275 278 282 285 288 291 294 296 298 299 299 301 303 306 308 309 311 312 313
242 253 259 260 253 259 264 269 259 267 279 285 288 288 292 291 285 280 277 277 275 273 274 274 276 277 279 283 286 289 292 293 295 296 298 299 301 303 305 307 309 310 311 312
245 253 262 250 250 260 267 263 263 270 281 285 285 286 287 284 278 276 277 277 276 277 279 279 279 280 281 284 288 290 292 293 294 295 297 298 300 303 305 306 308 310 311 312
245 256 261 252 262 260 268 269 270 276 282 282 283 283 285 282 274 274 276 278 278 279 281 282 281 281 283 286 289 290 291 292 292 294 296 298 300 303 304 305 307 309 311 312
256 255 258 260 262 267 271 274 276 279 278 279 281 282 283 281 275 274 276 278 280 280 280 282 282 282 284 287 289 290 290 290 291 293 295 298 301 302 303 305 307 309 310 312
258 262 264 264 268 271 273 275 276 275 278 278 278 278 281 280 276 274 275 277 280 280 281 281 281 281 283 286 288 288 289 289 290 292 295 298 301 302 303 304 306 309 310 312
260 264 266 268 271 272 273 275 277 278 278 278 277 278 279 279 277 276 276 276 278 280 281 280 280 280 282 285 285 286 286 288 289 292 295 299 301 302 302 303 306 307 309 311
265 266 267 270 272 273 275 275 278 277 277 278 277 277 279 279 278 278 277 277 277 278 280 279 279 279 280 283 283 281 285 287 288 292 295 298 300 301 302 304 306 307 309 311
263 266 268 270 273 274 275 276 276 275 275 276 276 277 278 278 279 278 277 278 278 278 278 278 278 278 278 279 279 277 282 285 289 292 295 297 299 300 302 305 307 309 310 311
264 267 270 273 274 275 275 276 274 275 275 275 275 276 277 277 277 277 278 278 278 278 278 279 278 277 276 276 273 274 279 284 289 292 294 296 298 300 302 305 307 309 311 312
269 272 273 274 275 275 274 274 274 275 276 277 277 277 276 276 276 277 277 277 277 278 279 278 277 274 273 272 269 272 277 284 288 290 294 295 297 299 302 304 307 309 311 312
271 275 277 278 279 278 276 276 275 275 275 276 277 276 275 276 276 276 277 277 277 278 277 276 274 270 268 265 269 273 276 281 284 288 292 294 297 299 302 304 307 309 310 312
274 279 282 284 287 286 281 277 275 275 275 275 275 274 275 275 275 276 277 276 275 276 275 274 271 266 265 266 267 272 275 280 282 287 291 294 297 299 302 305 307 309 310 312
281 285 287 288 290 290 289 286 283 280 277 275 274 273 274 274 274 274 275 274 273 273 274 271 267 265 264 263 267 269 274 278 281 287 291 294 297 299 302 305 307 308 311 313
285 288 292 294 295 292 290 286 284 282 280 277 276 274 273 274 272 272 272 272 273 274 270 268 265 264 264 262 265 270 272 276 282 287 291 294 297 300 303 304 307 309 311 313
289 292 294 298 301 299 289 286 283 280 279 278 277 276 275 275 273 272 272 274 275 271 268 265 263 264 262 261 264 268 272 277 283 287 291 294 298 301 303 305 307 309 311 314
289 293 294 298 298 298 290 284 282 282 280 280 280 279 277 276 274 273 273 274 274 268 266 264 262 258 257 258 263 270 274 280 284 289 292 295 299 302 304 306 308 310 312 314
291 292 293 295 293 293 286 281 282 283 282 282 282 281 280 279 276 274 274 271 269 263 262 261 257 252 255 261 268 272 278 282 286 289 294 297 300 303 305 307 309 311 313 315
288 291 290 292 291 285 280 279 280 282 281 282 284 284 283 282 280 276 275 269 263 255 259 259 253 256 258 266 272 277 281 285 288 292 296 299 302 304 306 308 310 312 314 315
288 287 286 285 280 279 275 277 278 277 277 282 286 286 285 285 282 278 272 265 259 256 261 261 260 257 265 271 276 279 283 286 291 295 299 301 303 306 308 310 312 314 315 316
287 284 282 276 272 272 271 275 275 273 275 279 285 288 287 287 284 278 273 266 263 262 267 264 261 262 270 274 278 281 285 290 294 298 301 303 306 308 310 311 313 315 316 317
280 277 276 272 271 267 266 268 269 272 274 278 283 284 285 285 281 276 273 272 268 268 267 264 263 267 272 276 279 283 288 293 297 300 303 306 308 310 311 313 315 316 317 318